Benson, MN

3:27 PM CDT on July 25, 2017 (GMT -0500)
Benson Municipal

Weather History for KBBB - March, 2013

Change the Weather History Date:

Tuesday, March 19, 2013

  Actual Average Record
Temperature  
Mean Temperature 8 °F -  
Max Temperature 14 °F 42 °F 75 °F (2012)
Min Temperature 1 °F 24 °F -6 °F (1965)
Degree Days  
Heating Degree Days 58    
Moisture  
Dew Point 1 °F    
Average Humidity 74    
Maximum Humidity 85    
Minimum Humidity 62    
Precipitation  
Precipitation 0.00 in - - ()
Sea Level Pressure  
Sea Level Pressure 30.13 in    
Wind  
Wind Speed 17 mph (NNW)    
Max Wind Speed 24 mph    
Max Gust Speed 31 mph    
Visibility 10 miles    
Events      
Averages and records for this station are not official NWS values.
T = Trace of Precipitation, MM = Missing Value Source: NWS Daily Summary

Daily Weather History Graph

Daily Weather History Graph

Search for Another Location

Airport or City:

Trip Planner

Search our weather history database for the weather conditions in past years. The results will help you decide how hot, cold, wet, or windy it might be!

Date:

Astronomy

Mar. 19, 2013 Rise Set
Actual Time 7:27 AM CDT 7:34 PM CDT
Civil Twilight 6:57 AM CDT 8:03 PM CDT
Nautical Twilight 6:23 AM CDT 8:38 PM CDT
Astronomical Twilight 5:47 AM CDT 9:13 PM CDT
Moon 12:02 PM CDT (3/19) 2:37 AM CDT (3/19)
Length of Visible Light 13h 06m
Length of Day
12h 07m
Waxing Crescent, 50% of the Moon is Illuminated
Mar 19
Waxing Crescent
Mar 19
First Quarter
Mar 27
Full
Apr 2
Last Quarter
Apr 10
New

Hourly Weather History & Observations

Time (CDT) Temp. Windchill Dew Point Humidity Pressure Visibility Wind Dir Wind Speed Gust Speed Precip Events Conditions
12:13 AM 6.8 °F -12.9 °F 1.4 °F 79% 29.93 in 10.0 mi NNW 19.6 mph 25.3 mph N/A   Clear
12:33 AM 6.8 °F -12.9 °F 1.4 °F 79% 29.93 in 10.0 mi NNW 19.6 mph - N/A   Clear
1:13 AM 6.8 °F -12.4 °F 1.4 °F 79% 29.94 in 10.0 mi NNW 18.4 mph - N/A   Clear
1:33 AM 6.8 °F -11.3 °F 1.4 °F 79% 29.94 in 10.0 mi NNW 16.1 mph - N/A   Clear
1:52 AM 6.8 °F -11.8 °F 1.4 °F 79% 29.95 in 10.0 mi NNW 17.3 mph - N/A   Clear
2:13 AM 5.0 °F -14.7 °F 1.4 °F 85% 29.95 in 10.0 mi NNW 18.4 mph - N/A   Clear
2:32 AM 5.0 °F -13.6 °F -0.4 °F 78% 29.96 in 10.0 mi NNW 16.1 mph - N/A   Clear
2:52 AM 5.0 °F -14.2 °F -0.4 °F 78% 29.96 in 10.0 mi NNW 17.3 mph - N/A   Clear
3:13 AM 5.0 °F -14.2 °F -0.4 °F 78% 29.97 in 10.0 mi NNW 17.3 mph - N/A   Clear
3:32 AM 5.0 °F -14.2 °F -0.4 °F 78% 29.97 in 10.0 mi NNW 17.3 mph - N/A   Clear
3:53 AM 3.2 °F -16.5 °F -0.4 °F 85% 29.98 in 10.0 mi NNW 17.3 mph - N/A   Clear
4:13 AM 3.2 °F -15.3 °F -0.4 °F 85% 29.98 in 10.0 mi NNW 15.0 mph - N/A   Clear
4:32 AM 3.2 °F -14.6 °F -2.2 °F 78% 29.98 in 10.0 mi NNW 13.8 mph - N/A   Clear
4:53 AM 3.2 °F -14.6 °F -2.2 °F 78% 29.99 in 10.0 mi NNW 13.8 mph - N/A   Clear
5:13 AM 3.2 °F -14.6 °F -2.2 °F 78% 30.00 in 10.0 mi NNW 13.8 mph - N/A   Clear
5:32 AM 3.2 °F -15.3 °F -2.2 °F 78% 30.01 in 10.0 mi NNW 15.0 mph - N/A   Clear
5:53 AM 3.2 °F -13.9 °F -2.2 °F 78% 30.01 in 10.0 mi NNW 12.7 mph - N/A   Clear
6:12 AM 1.4 °F -16.9 °F -4.0 °F 78% 30.02 in 10.0 mi NW 13.8 mph - N/A   Clear
6:53 AM 1.4 °F -18.2 °F -4.0 °F 78% 30.03 in 10.0 mi NNW 16.1 mph - N/A   Clear
7:12 AM 1.4 °F -17.6 °F -5.8 °F 72% 30.04 in 10.0 mi NNW 15.0 mph - N/A   Clear
7:33 AM 1.4 °F -18.2 °F -5.8 °F 72% 30.04 in 10.0 mi NNW 16.1 mph - N/A   Clear
7:53 AM 1.4 °F -16.1 °F -5.8 °F 72% 30.06 in 10.0 mi NNW 12.7 mph - N/A   Clear
8:12 AM 1.4 °F -15.3 °F -5.8 °F 72% 30.06 in 10.0 mi NNW 11.5 mph - N/A   Clear
8:33 AM 1.4 °F -12.5 °F -5.8 °F 72% 30.08 in 10.0 mi NNW 8.1 mph - N/A   Clear
8:53 AM 3.2 °F -13.1 °F -4.0 °F 72% 30.09 in 10.0 mi NNW 11.5 mph - N/A   Clear
9:12 AM 3.2 °F -14.6 °F -4.0 °F 72% 30.11 in 10.0 mi NW 13.8 mph - N/A   Clear
9:33 AM 3.2 °F -13.9 °F -4.0 °F 72% 30.12 in 10.0 mi NNW 12.7 mph - N/A   Clear
9:53 AM 5.0 °F -11.6 °F -2.2 °F 72% 30.13 in 10.0 mi NNW 12.7 mph - N/A   Clear
10:12 AM 6.8 °F -11.3 °F -2.2 °F 67% 30.13 in 10.0 mi North 16.1 mph - N/A   Clear
10:33 AM 6.8 °F -9.3 °F -2.2 °F 67% 30.13 in 10.0 mi North 12.7 mph - N/A   Clear
10:53 AM 6.8 °F -9.3 °F -2.2 °F 67% 30.13 in 10.0 mi North 12.7 mph - N/A   Clear
11:12 AM 6.8 °F -10.0 °F -0.4 °F 72% 30.13 in 10.0 mi North 13.8 mph - N/A   Scattered Clouds
11:33 AM 8.6 °F -8.3 °F -0.4 °F 67% 30.13 in 10.0 mi NNW 15.0 mph - N/A   Mostly Cloudy
11:53 AM 8.6 °F -7.7 °F -0.4 °F 67% 30.14 in 10.0 mi North 13.8 mph - N/A   Overcast
12:12 PM 10.4 °F -6.0 °F 1.4 °F 67% 30.14 in 10.0 mi North 15.0 mph - N/A   Overcast
12:33 PM 10.4 °F -6.0 °F 1.4 °F 67% 30.15 in 10.0 mi NNW 15.0 mph - N/A   Overcast
12:53 PM 10.4 °F -6.0 °F 1.4 °F 67% 30.15 in 10.0 mi NNW 15.0 mph - N/A   Scattered Clouds
1:12 PM 12.2 °F -3.1 °F 3.2 °F 67% 30.15 in 10.0 mi North 13.8 mph - N/A   Scattered Clouds
1:33 PM 12.2 °F -5.8 °F 3.2 °F 67% 30.16 in 10.0 mi North 19.6 mph - N/A   Clear
1:53 PM 12.2 °F -6.7 °F 3.2 °F 67% 30.17 in 10.0 mi North 21.9 mph - N/A   Clear
2:12 PM 12.2 °F -7.5 °F 3.2 °F 67% 30.17 in 10.0 mi North 24.2 mph - N/A   Clear
2:33 PM 12.2 °F -6.3 °F 3.2 °F 67% 30.17 in 10.0 mi North 20.7 mph - N/A   Clear
2:53 PM 12.2 °F -6.7 °F 3.2 °F 67% 30.17 in 10.0 mi North 21.9 mph - N/A   Mostly Cloudy
3:12 PM 14.0 °F -3.9 °F 3.2 °F 62% 30.18 in 10.0 mi North 20.7 mph - N/A   Overcast
3:33 PM 12.2 °F -5.8 °F 3.2 °F 67% 30.18 in 10.0 mi North 19.6 mph 27.6 mph N/A   Overcast
3:53 PM 12.2 °F -7.1 °F 3.2 °F 67% 30.18 in 7.0 mi North 23.0 mph - N/A   Mostly Cloudy
4:12 PM 12.2 °F -7.1 °F 3.2 °F 67% 30.19 in 7.0 mi North 23.0 mph 31.1 mph N/A   Mostly Cloudy
4:33 PM 12.2 °F -7.1 °F 3.2 °F 67% 30.20 in 10.0 mi North 23.0 mph - N/A   Scattered Clouds
4:53 PM 12.2 °F -7.5 °F 3.2 °F 67% 30.21 in 7.0 mi North 24.2 mph 28.8 mph N/A   Scattered Clouds
5:12 PM 12.2 °F -7.1 °F 3.2 °F 67% 30.21 in 10.0 mi North 23.0 mph 26.5 mph N/A   Clear
5:33 PM 12.2 °F -7.5 °F 5.0 °F 73% 30.22 in 7.0 mi North 24.2 mph - N/A   Clear
5:53 PM 12.2 °F -5.8 °F 5.0 °F 73% 30.23 in 10.0 mi North 19.6 mph - N/A   Clear
6:12 PM 12.2 °F -6.3 °F 6.8 °F 79% 30.23 in 10.0 mi North 20.7 mph - N/A   Clear
6:33 PM 12.2 °F -5.8 °F 5.0 °F 73% 30.24 in 10.0 mi North 19.6 mph - N/A   Clear
6:53 PM 12.2 °F -5.8 °F 5.0 °F 73% 30.24 in 10.0 mi North 19.6 mph - N/A   Clear
7:12 PM 12.2 °F -4.8 °F 3.2 °F 67% 30.24 in 10.0 mi North 17.3 mph - N/A   Clear
7:33 PM 10.4 °F -6.0 °F 5.0 °F 79% 30.25 in 10.0 mi NNW 15.0 mph - N/A   Clear
7:53 PM 10.4 °F -6.0 °F 3.2 °F 73% 30.25 in 10.0 mi North 15.0 mph - N/A   Clear
8:12 PM 10.4 °F -4.1 °F 3.2 °F 73% 30.25 in 10.0 mi NNW 11.5 mph - N/A   Clear
8:53 PM 8.6 °F -7.0 °F 3.2 °F 79% 30.26 in 10.0 mi NNW 12.7 mph - N/A   Clear
9:12 PM 8.6 °F -5.5 °F 3.2 °F 79% 30.26 in 10.0 mi NNW 10.4 mph - N/A   Clear
9:33 PM 8.6 °F -7.0 °F 3.2 °F 79% 30.26 in 10.0 mi NNW 12.7 mph - N/A   Clear
9:53 PM 8.6 °F -8.9 °F 5.0 °F 85% 30.27 in 10.0 mi NNW 16.1 mph - N/A   Clear
10:12 PM 8.6 °F -8.9 °F 3.2 °F 79% 30.27 in 10.0 mi NNW 16.1 mph - N/A   Clear
10:33 PM 6.8 °F -10.7 °F 3.2 °F 85% 30.28 in 10.0 mi North 15.0 mph - N/A   Mostly Cloudy
10:52 PM 8.6 °F -8.9 °F 3.2 °F 79% 30.28 in 10.0 mi North 16.1 mph - N/A   Scattered Clouds
11:12 PM 6.8 °F -11.8 °F 3.2 °F 85% 30.28 in 10.0 mi North 17.3 mph 21.9 mph N/A   Clear
11:33 PM 6.8 °F -11.8 °F 1.4 °F 79% 30.28 in 10.0 mi North 17.3 mph - N/A   Clear
11:52 PM 6.8 °F -11.3 °F 1.4 °F 79% 30.28 in 10.0 mi NNW 16.1 mph - N/A   Clear